Regional Weather Roundup
Issued by NWS Newport/Morehead, NC

Current Version | Previous Version | Text Only | Print | Product List | Glossary On
Versions: 1 2 3 4 5 6 7 8 9 10 11 12 13 14 15 16 17 18 19 20 21 22 23 24 25 26 27 28 29 30 31 32 33 34 35 36 37 38 39 40 41 42 43 44 45 46 47 48 49 50
000
ASUS42 KMHX 242212
RWRMHX
WEATHER ROUNDUP FOR EASTERN NORTH CAROLINA
NATIONAL WEATHER SERVICE NEWPORT/MOREHEAD CITY NC
600 PM EDT FRI APR 24 2015

NOTE: "FAIR" INDICATES FEW OR NO CLOUDS BELOW 12,000 FEET
WITH NO SIGNIFICANT WEATHER AND/OR OBSTRUCTIONS TO VISIBILITY

NCZ015>017-031-032-045>047-102-103-242300-
NORTH COAST

CITY           SKY/WX    TMP DP  RH WIND       PRES   REMARKS
EDENTON        SUNNY     64  28  26 NW10      29.95R
ELIZABETH CITY SUNNY     63  27  25 W10       29.93F
KITTY HAWK     CLEAR     53  38  56 E6        29.94F
MANTEO         MOSUNNY   54  40  59 E9        29.95F

$$

NCZ045>047-081-094-103-104-242300-
CENTRAL COAST

CITY           SKY/WX    TMP DP  RH WIND       PRES   REMARKS
FRISCO         SUNNY     55  40  56 SE7       29.97S
SWANQUARTER      N/A     64 N/A N/A W10G17    29.91S

$$

NCZ095-097-098-100-101-242300-
SOUTHERN COAST

CITY           SKY/WX    TMP DP  RH WIND       PRES   REMARKS
BEAUFORT       SUNNY     63  40  42 S12       29.97S
CEDAR ISLAND     N/A     66 N/A N/A NW6       30.00S
JACKSONVILLE   SUNNY     68  29  23 W8        29.97S
PINEY ISLAND   CLEAR    N/A N/A N/A W9        29.96S
WILMINGTON     SUNNY     70  27  20 W6        29.97F


$$

NCZ011>013-027>030-043-044-078>080-089-090>093-098-242300-
COASTAL PLAIN

CITY           SKY/WX    TMP DP  RH WIND       PRES   REMARKS
AHOSKIE        SUNNY     62  25  24 SW3       29.96R
CLINTON        SUNNY     68  32  26 CALM      29.98S
ELIZABETHTOWN  SUNNY     70  26  19 W6        29.98S
GOLDSBORO      SUNNY     68  29  23 W8        29.94F
GREENVILLE     SUNNY     64  27  24 W7        29.98S
HAVELOCK       SUNNY     68  28  22 NW10G17   29.97S
KENANSVILLE    SUNNY     67  28  22 W5        29.98S
KINSTON        SUNNY     66  25  20 NW7       29.97F
NEW BERN       SUNNY     67  30  25 W10       29.97S
RICHLANDS      SUNNY     66  27  22 W6        29.98S
ROCKY MOUNT    MOSUNNY   66  29  24 W9        29.96F
WASHINGTON     SUNNY     64  26  24 NW8       29.97R
WHITEVILLE     SUNNY     69  28  21 W5        29.98F

$$

AMZ130-135-150-152-154-156-158-170-250-252-270-ANZ085-086-088-633-658-670-242300-
MARINE OBSERVATIONS

STATION/POSITION TIME  TEMP    WIND        PRES    WAVE   SWELL
                       AIR SEA DIR/SP/G            HT/PER HT/PER
                 (UTC) (F)     (DEG/KT/KT) (MB)    (FT/S) (FT/S)
CHESAPEAKE LIGHT 2200   53      50/  5/  6 1014.3
64 E VA BEACH    2150   52 63  350/ 14/ 16 1013.7    6/ 7   5/ 7
DUCK             2100   53 55  100/  9/ 11 1013.1
2 E DUCK         2111      55                N/A     4/ 7   2/14
10 NE DUCK       NOT AVBL
OREGON INLET     2100   50 56   40/ 12/ 14 1014.4
HATTERAS CG      2100   56 65  120/  5/ 10 1014.2
DIAMOND BUOY     2150   57 74  340/  2/  2 1015.1    4/ 8   3/ 8
CAPE LOOKOUT     2200   61     220/  9/ 12 1014.6
BEAUFORT LAB     2100   62 65  200/ 11/ 13 1013.8
27 SE WRIGHTSVLE 2100   60 70  190/  2/  4   N/A
5 SE WRIGHTSVLE  2108   63 66  200/ 10/ 14 1015.5
225 S CAPE HAT   2150   64 71  360/ 12/ 16 1015.4    7/ 7   7/ 7
41 SE CHARLESTON 2150   64 71  100/  6/  8 1016.3    4/ 8   3/ 8

$$


USA.gov is the U.S. government's official web portal to all federal, state and local government web resources and services.